Probability
0 0 0 0 0 0 0 0 0 0 0 0 1 1 1 2 3 3 2 1 1 2 2 1 0 0 0 0 0 0 0 0 0 0 0 0 0 0 0 0 0 0 0
0 0 0 0 0 0 0 0 0 0 0 0 0 1 1 2 3 2 1 0 0 1 1 1 0 0 0 0 0 0 0 0 0 0 0 0 0 0 0 0 0 0 0
0 0 0 0 0 0 0 0 0 0 0 0 0 1 2 2 1 1 0 0 0 0 0 0 0 0 0 0 0 0 0 0 0 0 0 0 0 0 0 0 0 0 0
0 0 0 0 0 0 0 0 0 0 0 0 0 2 2 1 0 0 0 0 0 0 0 0 0 0 0 0 0 0 0 0 0 0 0 0 0 0 0 0 0 0 0
0 0 0 0 0 0 0 0 0 0 0 0 0 1 1 1 0 0 0 0 0 0 0 0 0 0 0 0 0 0 0 0 0 0 0 0 0 0 0 0 0 0 0
0 0 0 0 0 0 0 0 0 0 0 0 0 0 0 0 0 0 0 0 0 0 0 0 0 0 0 0 0 0 0 0 0 0 0 0 0 0 0 0 0 0 0
0 0 0 0 0 0 0 0 0 0 0 0 0 0 0 0 0 0 0 0 0 0 0 0 0 0 0 0 0 0 0 0 0 0 0 0 0 0 0 0 0 0 0
0 0 0 0 0 0 0 0 0 0 0 0 0 0 0 0 0 0 0 0 0 0 0 0 0 0 0 0 0 0 0 0 0 0 0 0 0 1 1 0 0 0 0
0 0 0 0 0 0 0 0 0 0 0 0 0 0 0 0 0 0 0 0 0 0 0 0 0 0 0 0 0 0 0 0 0 0 0 0 1 2 2 2 2 1 1
0 0 0 0 0 0 0 0 0 0 0 0 0 0 0 0 0 0 0 0 0 0 0 0 0 0 0 1 0 0 0 0 0 0 0 1 2 3 4 4 4 4 4
1 1 1 0 0 0 0 0 0 0 0 0 0 0 0 0 0 0 0 0 0 0 0 0 0 0 0 0 0 0 0 0 0 0 0 1 3 3 4 4 4 5 5
1 1 1 0 0 0 0 0 0 0 0 0 0 0 0 0 0 0 0 0 0 0 0 0 0 0 0 0 0 0 0 0 0 0 1 2 2 2 2 1 2 3 2
1 0 0 0 1 1 0 0 0 0 1 1 0 0 0 0 0 0 0 0 0 0 0 0 0 0 0 0 0 0 0 0 0 0 1 1 1 1 0 1 1 1 0
0 0 0 1 2 2 1 1 1 1 1 1 0 0 0 0 0 0 0 0 0 0 0 0 0 0 0 0 0 0 0 0 0 0 0 0 0 0 0 1 0 0 0
0 0 0 1 2 3 3 3 2 1 1 1 0 0 0 0 0 0 0 0 0 0 0 0 0 0 0 0 0 0 0 0 0 0 0 0 0 0 0 0 0 0 0
1 1 1 1 1 2 3 3 2 0 0 0 0 0 0 0 1 0 0 0 0 0 0 0 0 0 0 0 0 0 0 0 0 0 0 0 0 0 0 0 0 0 0
1 1 2 2 1 2 3 3 2 1 0 0 1 0 0 0 0 0 1 1 1 1 1 1 1 1 1 0 0 0 0 0 0 0 0 0 0 0 0 0 0 0 0
1 3 5 4 3 2 2 3 3 2 1 0 0 0 0 0 1 1 2 2 2 2 2 2 2 2 2 1 1 0 0 0 0 0 0 0 0 0 0 0 0 0 0
2 4 6 6 4 2 1 2 3 3 2 1 0 0 1 1 2 3 3 3 3 3 3 3 3 3 3 3 2 1 0 0 0 0 0 0 0 0 0 0 0 0 0
2 3 5 6 5 2 0 1 2 3 3 2 1 1 2 3 3 3 3 3 3 3 3 3 3 3 3 3 3 1 0 0 0 0 0 0 0 0 0 0 0 0 0
2 2 4 5 5 3 1 0 1 2 3 3 3 3 4 3 3 3 3 3 3 3 3 3 3 3 3 3 3 2 1 0 0 0 0 0 0 0 0 0 0 0 0
3 4 5 5 4 2 1 0 0 1 2 3 4 5 5 4 4 4 3 3 3 3 3 3 3 3 3 3 3 3 2 1 0 0 0 0 0 0 0 0 0 0 0
5 6 7 6 5 2 0 0 0 0 1 3 5 6 6 5 5 4 4 3 3 3 3 3 3 3 3 2 2 2 1 1 0 0 0 0 0 0 0 0 0 0 0
9 9 9 8 6 3 1 0 0 0 0 1 3 6 6 6 4 3 3 3 3 3 3 2 2 2 1 1 1 0 0 0 0 0 0 0 0 0 0 0 0 0 0
13 12 12 10 7 4 1 0 0 0 0 0 2 4 5 5 2 1 2 3 3 3 1 1 1 1 0 0 0 0 0 0 0 0 0 0 0 0 0 0 0 0 0
16 15 14 12 10 5 1 0 0 0 0 0 1 2 4 3 1 0 1 3 3 2 1 0 0 0 0 0 0 0 0 0 0 0 0 0 0 0 0 0 0 0 0
Wind_Speed
1 1 1 2 2 1 2 2 2 3 3 3 3 3 2 2 2 2 1 3 5 5 5 6 6 7 7 7 8 7 7 7 8 8 8 8 8 8 9 9 9 9 8
1 1 1 1 1 1 2 2 3 3 3 2 3 3 2 2 2 2 1 1 3 3 4 5 5 6 6 5 6 6 6 6 7 8 8 8 8 8 8 8 8 9 9
1 1 1 1 1 1 2 2 3 3 3 3 3 3 2 2 2 2 1 1 0 2 3 4 4 5 5 5 5 6 6 5 6 6 6 6 7 7 6 7 7 8 8
2 1 1 1 1 1 2 2 3 3 3 3 3 2 2 2 2 2 2 1 1 0 1 2 3 4 5 5 5 7 7 6 6 6 6 6 6 6 7 7 7 6 7
2 2 1 1 1 2 2 2 3 3 3 3 3 3 3 2 2 2 2 1 1 0 0 1 1 1 3 4 5 6 6 7 6 6 6 6 6 6 5 5 5 5 6
2 2 1 1 2 2 2 2 3 3 3 3 4 4 3 2 2 2 2 1 1 1 1 1 1 2 2 2 2 4 4 5 5 6 7 7 7 6 6 5 5 5 4
2 2 2 1 2 2 2 3 3 4 3 3 3 3 3 3 2 1 1 1 2 1 1 1 1 1 1 2 2 1 1 3 4 4 4 4 4 4 4 4 4 4 4
1 2 2 1 2 2 2 3 3 2 1 1 2 2 1 2 2 2 1 1 1 1 1 1 1 1 1 1 2 2 1 1 2 3 3 3 3 3 3 3 3 2 2
1 1 2 2 2 2 2 2 2 3 2 1 1 2 2 1 0 2 2 1 1 1 1 1 1 1 1 1 1 2 2 2 1 0 1 2 2 2 3 3 3 2 1
1 1 1 2 2 2 2 2 2 2 2 2 0 0 1 2 2 0 1 1 2 2 2 1 2 2 1 1 1 2 3 2 2 1 1 2 3 3 3 3 3 2 1
1 1 1 1 1 1 2 2 2 2 2 2 2 1 1 1 1 2 1 1 2 2 2 1 1 1 1 1 1 2 3 3 2 2 2 2 2 2 2 2 2 1 1
1 1 1 0 1 1 1 2 2 2 2 2 2 2 2 2 2 2 2 1 1 1 2 2 2 2 1 2 2 5 5 5 4 4 4 4 4 3 3 3 2 1 1
1 1 1 0 0 1 1 1 2 2 2 2 2 2 2 2 2 2 3 2 1 1 1 2 2 2 2 2 2 6 6 6 5 5 5 5 4 5 5 4 3 3 3
1 1 1 1 0 1 1 1 1 1 2 2 2 2 1 1 2 3 3 3 2 1 1 1 2 2 2 2 4 6 4 7 7 6 6 6 6 6 6 6 6 6 6
0 1 1 0 0 1 1 1 1 1 1 1 1 2 1 1 1 2 2 3 3 2 1 0 1 2 2 3 5 4 4 7 8 7 6 7 7 8 8 8 8 7 7
1 1 1 1 1 1 1 1 1 1 2 1 1 2 1 1 1 1 2 2 2 3 2 1 1 1 2 4 6 5 5 9 10 9 8 9 9 10 10 9 9 9 8
1 1 1 1 1 1 1 1 1 1 2 1 1 2 2 2 2 2 2 2 2 3 4 2 1 2 3 4 4 4 4 4 5 10 9 9 10 10 10 10 10 9 9
1 1 1 1 1 1 1 2 1 1 1 2 2 2 2 2 2 2 2 3 3 3 4 4 2 2 2 2 3 3 4 4 4 8 9 10 9 9 9 9 9 9 8
1 1 1 2 1 1 1 1 2 2 2 1 2 2 2 3 2 2 3 3 3 4 3 4 3 2 2 2 2 3 4 3 3 5 7 8 8 8 8 8 8 7 7
2 2 1 1 1 2 2 2 2 2 2 2 2 2 2 2 3 3 3 4 4 5 4 4 4 2 2 1 2 2 2 2 2 3 4 4 6 6 6 6 6 6 6
2 2 2 2 1 1 2 3 3 3 3 2 2 2 3 4 5 4 4 4 5 5 4 4 3 2 2 1 1 1 1 1 1 1 1 2 2 2 2 3 4 4 4
2 2 2 2 1 1 2 4 4 3 3 3 2 2 3 4 5 6 7 7 7 6 6 4 3 3 2 2 2 2 2 1 0 0 1 1 1 1 1 1 2 3 3
3 3 2 2 2 2 3 4 4 3 2 2 2 2 2 3 4 4 6 7 6 6 6 5 4 4 3 3 4 3 2 1 1 1 1 0 0 0 1 0 1 1 2
4 3 3 3 2 2 4 5 5 4 3 2 2 3 3 3 4 5 5 5 4 3 2 3 3 3 3 3 4 3 2 2 1 1 1 0 0 1 1 0 0 1 1
4 3 3 3 3 2 4 6 6 3 3 2 2 2 3 3 5 7 6 5 4 3 3 4 4 3 3 4 4 3 3 2 0 0 1 1 0 0 1 1 1 1 2
4 3 3 3 4 3 4 6 7 4 3 2 2 2 3 4 6 7 6 5 4 2 2 3 3 3 3 3 4 3 3 2 1 1 1 1 1 1 1 1 1 1 2
Wind_Direction
72 66 68 62 50 57 73 69 76 83 87 97 111 121 126 133 144 146 165 186 184 194 196 188 190 191 190 191 190 190 196 201 202 201 203 203 204 203 202 205 204 201 202
104 90 71 62 55 55 72 83 87 93 88 89 89 102 116 125 130 125 131 198 195 195 203 193 194 199 192 191 195 188 192 201 206 208 206 207 207 207 206 207 210 210 211
125 122 99 74 60 68 77 84 83 86 92 87 80 85 93 97 89 91 93 67 190 191 190 187 189 194 192 196 193 192 193 197 203 206 201 203 204 202 204 209 213 218 216
130 120 103 88 68 79 88 98 92 87 82 80 74 66 74 75 78 84 86 80 55 322 204 189 202 204 199 200 201 203 202 209 211 209 206 204 207 209 211 216 219 223 222
124 124 111 101 88 86 86 106 97 104 100 91 86 72 66 63 55 73 75 85 84 69 32 330 338 238 210 216 217 211 214 215 215 218 216 213 214 214 213 219 220 223 223
118 122 116 100 102 95 87 97 102 97 104 102 91 76 61 59 54 49 46 53 46 40 38 11 338 326 319 264 241 227 226 217 212 216 219 219 219 221 227 222 223 223 224
119 124 121 112 114 115 122 120 112 109 107 107 95 72 45 47 50 40 45 49 36 27 33 22 355 333 336 5 5 311 254 226 212 207 211 215 217 215 213 215 223 226 226
112 139 134 141 138 127 115 121 125 125 146 133 115 108 60 18 16 31 52 60 22 26 29 18 14 7 342 329 11 2 313 284 231 209 199 195 190 180 187 195 201 190 215
96 125 144 150 151 149 152 155 150 148 162 172 129 142 146 190 319 16 33 36 34 44 17 9 13 7 357 353 332 7 11 8 5 197 180 177 177 169 166 161 147 146 134
58 106 140 155 160 161 165 180 172 158 147 167 159 110 150 152 155 125 18 29 36 37 31 25 20 21 22 26 37 50 56 45 30 18 133 146 146 150 162 167 162 160 161
28 48 94 137 162 171 177 173 161 162 166 169 164 150 120 104 137 156 184 20 39 33 36 36 30 25 26 27 14 51 59 59 56 59 81 100 104 121 134 144 154 167 192
12 18 72 110 147 163 176 184 173 168 174 167 166 165 163 163 174 167 176 171 75 28 36 38 35 27 31 25 44 58 63 65 64 64 67 64 64 72 80 91 93 83 73
349 337 29 47 136 172 166 164 161 173 173 169 174 180 178 182 159 154 151 150 122 52 37 34 28 30 37 32 41 54 61 63 66 72 77 73 70 74 75 74 67 65 67
259 347 22 37 78 131 150 151 152 178 170 180 182 168 167 187 169 165 161 151 140 99 53 23 28 31 34 44 51 52 56 60 67 78 83 80 73 70 75 72 68 69 71
163 57 36 59 94 113 143 148 154 183 170 166 158 150 150 166 167 171 167 167 157 155 143 40 38 28 39 54 50 50 56 63 66 73 84 85 78 73 72 71 71 73 75
126 99 77 74 82 90 127 143 144 156 138 139 138 128 123 118 122 136 151 150 149 147 143 102 65 51 54 66 62 56 57 65 65 67 73 77 77 75 73 73 73 72 73
133 142 152 150 133 117 118 125 131 127 133 124 114 121 114 112 117 129 133 128 128 131 133 112 78 73 68 70 61 61 61 58 64 66 70 76 76 75 74 73 71 71 73
148 156 148 140 141 124 122 131 129 110 124 125 122 116 112 113 103 112 123 125 130 131 135 135 109 87 75 78 72 71 63 63 66 67 69 71 74 74 73 72 71 67 67
136 124 126 131 128 123 119 124 129 116 115 121 124 124 123 117 105 108 112 115 116 113 114 130 124 104 89 85 78 74 65 50 65 68 68 66 68 71 70 71 72 71 69
142 138 129 133 132 128 129 129 125 117 109 99 108 115 117 126 129 126 116 115 116 112 112 119 119 111 97 90 98 96 77 53 50 53 59 61 61 65 66 68 72 76 78
154 149 135 126 128 141 151 149 145 133 119 102 90 95 107 113 123 130 131 133 129 126 125 126 125 117 116 137 149 161 124 89 50 42 50 47 46 52 56 67 79 81 87
154 145 148 150 147 160 144 141 138 133 127 124 114 95 96 101 113 112 118 130 140 143 145 143 145 157 169 170 156 154 140 132 128 48 98 51 67 62 46 70 95 98 103
167 166 172 162 170 178 157 149 141 138 134 134 133 127 120 107 110 115 110 110 111 120 143 154 160 179 181 181 168 166 175 172 179 149 148 105 51 320 311 32 115 130 130
182 188 189 185 182 195 170 160 151 144 138 136 137 143 139 130 132 130 122 113 107 108 130 150 166 179 177 177 179 173 164 136 94 95 165 178 259 280 336 344 5 185 165
189 192 193 190 191 207 183 171 161 151 145 143 140 137 143 138 136 134 131 126 115 98 89 97 106 112 125 136 147 137 134 139 160 226 181 194 216 295 298 293 280 272 245
186 182 193 202 199 206 196 181 170 163 161 159 142 133 137 141 140 142 140 140 140 137 118 99 84 83 97 115 135 158 169 168 158 212 179 185 178 194 261 269 281 275 260